Terminal Aerodrome Forecast
Issued by NWS Northern Indiana

Home | Current Version | Previous Version | Text Only | Print | Product List | Glossary Off
Versions: 1 2 3 4 5 6 7 8 9 10 11 12 13 14 15 16

000
FTUS43 KIWX 311100
TAFFWA
TAF
KFWA 311120Z 3112/0112 VRB02KT 4SM BR FEW050
     FM311300 26004KT P6SM FEW050 SCT100
     FM311500 26008KT P6SM SCT050
     FM010100 VRB02KT P6SM SCT050=

USA.gov is the U.S. government's official web portal to all federal, state and local government web resources and services.